Weather in Gurzuf

Russia / Republic of Crimea     44°32′50″N   34°17′29″E
temp.,
°C
wind,
m/s
gust,
m/s
humid.,
%
clouds,
%
prec.,
mm/h
press.,
hPa
HPBL,
m
3 march, wed
wed300:00+3nw557339 0.0 1025261
03:00+4nw457538 0.0 1024292
06:00+6wnw247779 0.1 1023416
09:00+4nnw557373 0.1 1025468
12:00+5nnw345519 0.0 1026613
15:00+7sw13499 0.0 1027604
18:00+6ene02560 0.0 1027607
21:00+4nnw336627 0.0 1029153
4 march, thu
thu400:00+4nnw326410 0.0 1029109
03:00+4nw225926 0.0 1028126
06:00+4nw11590 0.0 1027132
09:00+5nw11600 0.0 1027240
12:00+6sw55620 0.0 1025641
15:00+7sw87660 0.0 1023529
18:00+5sw77710 0.0 1021487
21:00+4wsw68776 0.0 1021523
5 march, fri
fri500:00+4sw78797 0.0 1020522
03:00+4wsw67764 0.0 1019412
06:00+5wsw67740 0.0 1018342
09:00+6sw57702 0.0 1017362
12:00+8sw68690 0.0 1016499
15:00+8sw68680 0.0 1015455
18:00+8wsw687512 0.0 1014293
21:00+7wsw688256 0.0 1015290
6 march, sat
sat600:00+7wsw688366 0.0 1015245
03:00+8w567172 0.0 101587
06:00+8w456892 0.0 101460
09:00+9w456796 0.0 101557
12:00+10wsw4561100 0.0 1016467
15:00+10nne5569100 0.1 1017270
18:00+6nw5582100 0.1 1019508
21:00+3nnw6769100 0.8 1023476
7 march, sun
sun700:00+3nnw5659100 0.1 1025860
03:00+1nnw456282 0.1 1027545
06:000nnw45461 0.0 1028438
09:000nnw23360 0.0 1029540
12:00+2ssw44441 0.0 10291298
15:00+3ssw665220 0.0 10271198
18:00+2sw23514 0.0 10251058
21:000nnw44582 0.0 1025389